Temp
45 46 45 45 44 44 44 44 44 45 45 46 44 46 45 46 49 50 50 49 50 51 51 53 54 56 57 60 61 61 62 61 63 63 65 66 68 68 68 69 72 77 77
44 44 44 43 42 42 43 44 44 45 44 45 45 45 44 46 47 48 48 47 48 48 49 50 51 53 55 56 58 60 61 63 66 64 64 62 64 66 68 68 71 71 78
40 41 41 41 42 41 42 42 43 44 44 44 46 46 46 46 46 46 46 47 47 48 47 48 50 51 53 53 55 58 59 58 65 66 64 62 61 66 66 66 68 70 73
40 40 39 40 40 41 43 41 42 43 44 44 42 41 39 39 42 42 44 45 46 47 48 47 48 50 51 51 53 57 57 56 59 66 67 67 66 61 61 64 66 69 72
38 38 37 39 40 41 41 40 41 41 41 40 40 39 38 40 42 43 41 43 44 46 46 47 49 49 50 51 52 53 54 58 54 61 66 64 63 64 57 56 61 64 69
37 37 38 39 39 40 39 39 39 39 39 37 38 37 36 37 38 39 39 40 44 46 46 47 47 49 49 48 49 51 52 55 55 55 61 64 64 62 58 56 58 60 64
36 36 37 36 37 37 37 37 37 36 37 36 36 36 36 36 36 37 38 38 40 42 44 45 46 47 48 48 48 47 48 49 50 53 53 62 67 66 64 59 58 56 61
35 35 36 35 35 36 36 36 34 34 36 35 35 36 36 36 37 37 37 37 37 39 42 43 44 45 46 47 48 47 47 50 51 52 51 52 62 64 64 62 60 56 58
34 34 35 35 35 35 35 34 33 34 34 33 34 35 35 35 35 35 35 35 35 38 38 40 41 43 43 46 47 46 47 48 51 52 52 55 57 63 66 64 62 59 54
32 32 32 32 34 34 34 34 34 32 32 33 34 34 34 34 33 33 32 33 34 36 37 37 38 40 42 44 46 46 48 49 50 52 55 55 55 59 62 64 63 61 59
30 28 28 30 30 31 31 31 30 29 30 33 33 31 30 30 30 30 30 31 33 34 35 36 36 37 39 41 44 46 48 49 51 53 54 56 59 55 60 63 61 61 59
30 28 27 26 27 27 28 28 29 28 29 31 30 28 28 28 28 28 29 30 31 33 33 35 35 35 36 37 39 39 40 41 41 41 41 41 48 50 58 59 59 60 61
30 29 28 27 26 28 28 27 28 27 27 28 27 26 26 26 26 27 28 30 30 31 32 33 33 33 34 35 35 36 36 36 36 36 38 37 38 38 44 45 45 56 61
30 29 29 28 28 28 27 27 27 27 26 25 25 24 24 25 25 27 28 29 31 30 30 31 32 32 32 32 33 34 34 34 34 34 35 36 35 34 36 37 37 42 48
29 29 28 28 28 29 28 28 28 26 26 24 23 23 25 25 26 27 28 28 29 29 30 31 31 32 32 31 30 31 31 31 31 32 33 34 35 35 34 34 32 35 41
29 29 29 30 29 30 28 29 28 26 27 24 23 24 24 24 25 25 26 26 27 27 26 28 29 29 30 31 31 30 28 29 28 28 30 31 32 33 33 33 33 32 30
29 29 29 29 29 29 29 28 28 28 27 25 23 23 23 22 22 25 24 24 24 25 25 25 27 27 28 30 30 29 27 27 28 28 27 28 30 30 31 31 31 31 32
30 30 30 28 28 30 30 30 29 29 27 26 25 23 22 21 22 22 23 23 24 23 23 24 25 27 28 29 28 28 26 25 26 28 27 27 28 28 28 28 27 27 28
28 25 26 27 28 28 29 28 28 27 27 26 26 26 24 22 22 21 23 23 23 23 23 23 24 23 26 28 26 26 25 24 23 25 28 26 26 28 28 25 25 25 24
25 24 25 27 25 25 27 23 23 23 23 24 25 27 27 25 22 23 23 24 24 23 24 23 22 25 23 27 26 24 24 21 23 23 24 26 25 25 25 23 23 21 23
23 24 23 22 22 23 24 20 20 18 19 23 25 24 26 24 24 25 25 25 24 23 23 23 23 22 24 24 26 25 21 21 20 20 21 22 23 24 23 22 20 19 23
23 22 21 20 20 22 22 19 18 18 20 21 21 21 22 23 23 22 24 24 24 23 22 23 23 25 24 24 24 23 22 21 19 18 19 19 21 20 21 20 19 19 20
22 22 20 18 19 21 22 19 18 20 20 20 18 20 21 21 23 23 23 24 23 23 22 22 21 22 24 24 22 22 21 18 18 18 19 19 18 18 17 18 17 16 17
22 23 21 19 18 20 23 21 20 21 21 20 20 21 22 22 22 25 26 25 23 22 22 21 20 21 22 23 23 22 20 18 18 17 17 16 17 15 15 16 16 15 15
24 25 25 24 22 23 22 23 23 24 23 22 22 23 23 22 23 24 25 25 26 26 23 22 22 21 20 22 23 22 20 18 17 18 18 16 16 14 14 15 14 14 14
26 26 26 25 25 26 26 27 28 27 25 24 24 24 24 24 24 24 23 25 26 26 26 26 25 24 25 24 23 22 22 19 18 17 15 13 14 14 14 13 13 13 12
MSLP
1024.67 1024.85 1024.99 1024.94 1024.75 1024.55 1024.20 1023.74 1023.23 1022.76 1022.19 1021.40 1020.87 1020.12 1019.66 1019.27 1018.66 1018.35 1018.00 1017.87 1017.36 1016.69 1016.19 1015.44 1014.81 1014.33 1013.92 1013.56 1013.06 1012.54 1012.00 1011.81 1011.82 1011.78 1011.86 1011.87 1011.50 1011.40 1011.69 1011.56 1011.39 1011.40 1011.92
1024.66 1024.90 1024.97 1025.02 1024.96 1024.74 1024.51 1024.00 1023.58 1023.08 1022.66 1022.06 1021.59 1021.16 1020.31 1019.44 1019.03 1018.47 1018.08 1017.85 1017.38 1016.96 1016.29 1015.49 1014.83 1014.21 1013.45 1013.26 1012.88 1012.22 1011.64 1011.13 1010.97 1010.64 1010.96 1010.54 1010.29 1010.04 1010.46 1010.80 1010.58 1010.64 1010.80
1025.10 1025.20 1025.25 1025.26 1025.16 1024.86 1024.57 1024.36 1023.89 1023.36 1022.89 1022.43 1021.53 1020.86 1020.16 1019.34 1018.55 1018.24 1017.74 1017.37 1017.04 1016.48 1016.05 1015.38 1014.62 1014.12 1013.44 1012.55 1012.64 1012.14 1011.31 1010.55 1010.04 1009.91 1009.51 1009.26 1008.26 1008.59 1008.84 1009.90 1009.87 1009.88 1010.25
1025.20 1025.42 1025.48 1025.43 1025.42 1025.26 1024.99 1024.72 1024.30 1023.67 1023.03 1022.56 1022.07 1021.23 1020.50 1019.54 1019.01 1018.38 1017.61 1017.04 1016.62 1015.89 1015.26 1014.81 1014.23 1013.58 1013.08 1012.29 1011.71 1011.73 1011.31 1010.67 1009.40 1008.71 1008.53 1008.43 1007.55 1007.78 1007.90 1009.38 1009.32 1009.25 1009.27
1025.23 1025.52 1025.75 1025.64 1025.53 1025.38 1025.12 1025.06 1024.47 1023.86 1023.40 1022.97 1022.60 1021.64 1020.74 1019.86 1018.96 1018.19 1017.32 1016.60 1015.84 1015.16 1014.67 1014.15 1013.50 1013.12 1012.66 1012.08 1011.30 1010.65 1010.56 1009.95 1009.74 1008.29 1007.63 1007.59 1007.40 1007.62 1008.13 1008.43 1008.82 1008.81 1008.84
1025.42 1025.78 1025.95 1025.93 1025.68 1025.65 1025.27 1025.07 1024.70 1024.22 1023.66 1023.20 1022.63 1021.86 1021.06 1020.05 1019.06 1018.17 1017.28 1016.37 1015.45 1014.53 1013.92 1013.42 1012.90 1012.31 1011.75 1011.42 1010.91 1010.27 1009.79 1009.47 1008.99 1008.43 1007.15 1006.21 1006.30 1006.29 1007.12 1008.24 1008.70 1009.35 1008.77
1025.45 1025.77 1025.81 1025.72 1025.72 1025.57 1025.41 1025.18 1024.96 1024.33 1023.77 1023.25 1022.69 1021.91 1021.12 1020.28 1019.40 1018.32 1017.33 1016.37 1015.35 1014.36 1013.56 1012.98 1012.22 1011.54 1011.04 1010.69 1010.30 1010.02 1009.53 1009.33 1008.65 1007.90 1007.28 1005.90 1005.20 1005.79 1006.20 1007.32 1007.55 1008.61 1008.44
1025.40 1025.78 1026.04 1026.13 1026.05 1025.90 1025.74 1025.46 1025.17 1024.42 1023.90 1023.45 1022.62 1021.90 1021.22 1020.52 1019.50 1018.66 1017.79 1016.88 1015.84 1014.68 1013.63 1012.75 1012.07 1011.25 1010.52 1009.94 1009.62 1009.26 1009.18 1008.79 1008.24 1007.75 1007.39 1006.73 1005.43 1005.24 1005.82 1006.23 1007.01 1007.38 1008.20
1025.67 1026.06 1026.27 1026.45 1026.36 1026.20 1026.02 1025.79 1025.36 1024.74 1024.25 1023.64 1022.80 1022.03 1021.49 1020.75 1019.92 1019.13 1018.27 1017.30 1016.34 1015.11 1013.97 1012.92 1011.86 1010.89 1010.03 1009.13 1008.71 1008.53 1008.38 1008.19 1007.75 1007.05 1006.80 1006.32 1005.28 1004.80 1004.80 1005.33 1005.86 1006.37 1006.81
1025.83 1026.38 1026.65 1026.85 1026.86 1026.68 1026.35 1026.14 1025.65 1025.19 1024.76 1023.95 1023.19 1022.56 1021.92 1021.20 1020.43 1019.51 1018.64 1017.71 1016.60 1015.39 1014.22 1013.09 1011.96 1010.85 1009.82 1008.83 1007.42 1007.77 1007.64 1007.50 1007.14 1006.78 1006.43 1006.22 1005.90 1004.83 1004.16 1004.63 1005.00 1005.40 1005.60
1025.94 1026.67 1027.11 1027.25 1027.32 1027.05 1026.71 1026.51 1026.16 1025.67 1025.10 1024.35 1023.75 1023.18 1022.55 1021.89 1020.94 1020.05 1019.17 1018.21 1017.07 1015.79 1014.61 1013.45 1012.40 1011.38 1010.36 1009.13 1008.04 1007.28 1007.07 1006.96 1006.81 1006.35 1006.05 1005.87 1005.37 1005.35 1004.94 1004.25 1004.33 1004.69 1005.08
1025.97 1026.73 1027.19 1027.43 1027.52 1027.29 1027.02 1026.88 1026.58 1026.22 1025.69 1025.03 1024.48 1023.99 1023.32 1022.37 1021.61 1020.80 1019.98 1018.92 1017.72 1016.55 1015.34 1014.19 1013.14 1012.17 1011.15 1010.21 1009.37 1008.84 1008.53 1008.09 1007.83 1007.67 1007.28 1007.05 1006.38 1006.10 1005.27 1005.11 1004.38 1004.05 1003.94
1026.02 1026.60 1027.06 1027.37 1027.34 1027.19 1027.17 1027.02 1026.89 1026.69 1026.18 1025.67 1025.05 1024.64 1023.97 1023.12 1022.44 1021.63 1020.72 1019.66 1018.56 1017.32 1016.25 1015.14 1014.10 1013.25 1012.42 1011.67 1011.02 1010.45 1009.93 1009.70 1009.58 1009.51 1008.84 1008.63 1008.03 1007.78 1007.14 1006.26 1005.91 1004.76 1004.26
1025.72 1026.42 1026.84 1027.10 1027.20 1027.25 1027.22 1027.22 1027.17 1026.95 1026.58 1026.11 1025.78 1025.29 1024.54 1023.88 1023.16 1022.45 1021.53 1020.56 1019.51 1018.39 1017.34 1016.27 1015.35 1014.58 1013.93 1013.25 1012.67 1012.17 1011.73 1011.33 1011.15 1011.00 1010.53 1010.17 1010.10 1009.70 1008.92 1008.49 1007.92 1007.15 1006.09
1025.47 1026.22 1026.69 1026.95 1027.06 1027.09 1027.21 1027.25 1027.35 1027.16 1026.97 1026.62 1026.27 1025.84 1025.28 1024.54 1023.75 1022.99 1022.34 1021.67 1020.61 1019.95 1018.94 1017.68 1016.64 1015.82 1015.19 1014.93 1014.39 1013.90 1013.51 1013.14 1012.60 1012.28 1012.12 1012.02 1011.90 1011.43 1011.05 1010.43 1009.90 1008.73 1007.73
1025.28 1026.08 1026.58 1026.73 1026.93 1027.13 1027.31 1027.29 1027.48 1027.35 1027.20 1026.99 1026.78 1026.47 1025.94 1025.29 1024.67 1023.99 1023.32 1022.64 1021.95 1021.22 1020.42 1019.24 1018.49 1017.67 1017.26 1016.96 1016.20 1015.49 1014.93 1014.65 1014.27 1013.86 1013.74 1013.62 1013.17 1012.50 1012.39 1012.60 1011.47 1011.06 1010.21
1025.03 1025.89 1026.47 1026.84 1027.19 1027.39 1027.54 1027.52 1027.61 1027.62 1027.43 1027.45 1027.41 1027.05 1026.68 1026.12 1025.66 1025.07 1024.39 1023.80 1023.12 1022.50 1021.69 1021.06 1020.22 1019.59 1019.33 1018.82 1018.25 1017.61 1016.77 1016.17 1016.03 1016.07 1015.59 1015.06 1014.78 1014.09 1013.57 1013.10 1012.60 1012.38 1012.22
1025.06 1025.92 1026.57 1027.14 1027.53 1027.67 1027.75 1027.76 1027.83 1027.63 1027.73 1027.78 1027.65 1027.56 1027.19 1026.80 1026.46 1025.84 1025.48 1025.16 1024.66 1024.13 1023.60 1022.96 1022.35 1021.52 1021.06 1020.62 1020.10 1019.52 1018.95 1018.69 1018.23 1017.60 1016.98 1016.28 1016.10 1015.63 1014.90 1014.15 1013.52 1013.78 1013.79
1025.40 1026.36 1027.02 1027.44 1027.77 1027.97 1028.06 1028.04 1028.15 1028.06 1028.20 1028.21 1028.06 1027.76 1027.60 1027.31 1026.97 1026.55 1026.27 1026.04 1025.70 1025.31 1024.89 1024.55 1023.82 1023.26 1022.50 1021.91 1021.39 1020.69 1020.41 1020.13 1019.93 1019.48 1018.88 1018.36 1017.61 1017.00 1016.21 1015.30 1015.37 1015.44 1015.51
1025.98 1026.75 1027.38 1027.74 1028.18 1028.46 1028.53 1028.63 1028.74 1028.79 1029.03 1028.84 1028.74 1028.31 1027.97 1027.61 1027.43 1027.20 1026.87 1026.72 1026.34 1026.09 1025.77 1025.28 1025.02 1024.50 1023.92 1023.13 1022.51 1022.07 1021.60 1021.18 1020.80 1020.72 1020.45 1019.93 1019.42 1018.74 1017.92 1017.52 1017.36 1016.97 1017.23
1026.46 1027.20 1027.76 1028.13 1028.61 1028.83 1028.88 1029.09 1029.20 1029.48 1029.84 1029.44 1029.26 1028.92 1028.44 1028.17 1027.99 1027.72 1027.48 1027.26 1026.96 1026.53 1026.16 1025.73 1025.70 1025.46 1025.04 1024.45 1023.80 1023.41 1022.98 1022.87 1022.54 1022.19 1021.93 1021.70 1021.18 1020.45 1020.11 1019.83 1019.64 1019.46 1018.85
1026.69 1027.49 1028.01 1028.58 1029.00 1029.15 1029.18 1029.40 1029.60 1030.07 1030.06 1029.89 1029.64 1029.37 1029.13 1028.80 1028.68 1028.45 1028.11 1027.95 1027.47 1027.05 1026.95 1026.79 1026.44 1026.38 1026.16 1025.86 1025.26 1024.81 1024.72 1024.37 1023.99 1023.90 1023.89 1023.65 1023.01 1022.49 1022.02 1021.78 1021.79 1021.31 1020.65
1026.66 1027.56 1028.08 1028.73 1029.12 1029.30 1029.33 1029.55 1029.97 1030.08 1030.16 1030.19 1030.09 1029.87 1029.59 1029.33 1029.12 1028.83 1028.54 1028.17 1028.06 1027.66 1027.51 1027.44 1027.32 1027.07 1026.87 1026.70 1026.77 1026.35 1026.18 1026.05 1025.56 1025.50 1025.31 1024.87 1024.48 1024.04 1023.62 1023.25 1023.00 1022.39 1021.95
1026.56 1027.38 1028.09 1028.55 1029.10 1029.29 1029.43 1029.65 1029.92 1030.01 1030.14 1030.26 1030.19 1030.05 1029.73 1029.71 1029.52 1029.15 1028.93 1028.38 1028.37 1028.31 1028.27 1028.16 1027.98 1027.95 1027.73 1027.56 1027.37 1027.25 1027.07 1027.02 1026.71 1026.46 1026.22 1025.85 1025.38 1025.24 1024.89 1024.37 1024.06 1023.91 1023.62
1026.38 1027.06 1027.56 1028.13 1028.82 1029.18 1029.43 1029.68 1029.77 1029.99 1030.16 1030.26 1030.27 1030.28 1030.26 1030.18 1029.92 1029.92 1029.39 1029.11 1029.07 1028.89 1028.81 1028.78 1028.70 1028.60 1028.47 1028.62 1028.49 1028.10 1027.84 1027.84 1027.91 1027.19 1026.69 1026.38 1026.07 1025.90 1025.81 1025.56 1025.30 1025.00 1024.61
1025.93 1026.66 1027.33 1027.93 1028.47 1028.90 1029.04 1029.34 1029.57 1029.84 1029.96 1030.15 1030.43 1030.61 1030.59 1030.53 1030.46 1030.29 1030.20 1030.17 1029.87 1029.65 1029.45 1029.12 1029.20 1029.38 1029.29 1029.24 1029.17 1029.02 1028.54 1028.44 1028.31 1027.74 1027.34 1027.25 1027.11 1026.92 1026.81 1026.59 1026.38 1026.18 1025.97
Wind_Speed
8 10 11 12 13 14 14 15 15 15 13 11 12 9 10 12 9 9 11 13 12 11 13 10 11 9 9 8 9 8 10 10 12 6 8 9 11 11 11 9 10 14 15
11 12 13 14 14 14 15 16 16 15 13 10 10 8 11 7 10 9 12 12 12 13 12 12 12 12 10 10 10 11 8 10 10 11 11 9 7 9 12 10 10 14 13
8 10 12 13 13 15 15 16 16 16 14 16 11 10 10 9 9 11 11 12 15 14 13 14 13 12 11 10 10 11 13 8 12 17 10 8 12 4 6 13 12 14 11
6 8 11 12 13 13 13 15 14 16 14 16 14 16 12 14 12 12 11 13 15 15 14 13 14 13 10 13 12 10 12 10 11 9 13 19 3 5 10 4 10 12 14
6 7 8 10 10 11 12 13 13 15 15 15 15 12 14 12 12 11 17 16 14 14 14 15 15 14 10 12 15 14 12 11 10 11 11 14 10 11 4 3 3 6 10
5 6 7 9 9 11 12 12 14 14 15 14 15 15 15 16 13 14 12 10 11 11 13 13 14 14 13 13 13 15 16 14 12 10 11 12 13 13 8 12 4 8 6
5 7 8 10 11 12 13 12 14 14 15 15 15 15 15 16 16 15 11 15 10 10 12 13 13 12 13 14 11 13 13 12 11 10 8 10 13 8 8 9 13 10 5
5 6 8 9 10 12 13 13 14 15 15 15 15 14 15 11 10 12 11 10 10 11 15 13 13 13 13 13 13 10 9 13 12 15 10 9 10 10 13 12 9 10 13
4 6 7 8 9 10 12 13 14 14 15 16 14 14 14 15 13 14 13 10 11 10 13 14 13 12 13 11 12 9 10 10 13 10 8 8 6 10 11 11 10 10 10
2 5 6 8 8 9 10 12 13 14 14 14 13 13 14 15 14 13 15 16 15 13 12 13 13 12 11 13 9 10 10 10 7 8 13 11 7 8 7 12 11 10 12
2 3 5 6 7 8 10 11 12 13 13 13 14 14 14 14 14 14 14 15 15 13 13 13 14 13 13 12 11 7 8 10 10 9 9 11 10 7 10 8 9 12 13
4 2 3 5 6 7 9 10 11 12 12 12 13 13 13 15 15 16 16 15 15 15 16 14 15 14 14 15 15 15 14 15 15 14 15 15 9 12 7 9 8 9 9
5 3 3 4 5 8 8 9 10 10 11 12 13 13 13 14 14 16 16 17 16 16 16 16 17 17 17 16 16 16 16 17 16 17 16 17 17 14 10 10 10 7 6
6 4 4 4 5 6 7 8 9 9 10 11 12 13 13 13 13 14 16 17 18 18 17 18 17 19 19 18 18 17 17 17 17 17 19 18 19 18 15 13 13 10 8
7 5 4 4 4 6 7 8 8 9 9 10 11 11 12 13 13 15 17 16 17 18 18 19 21 20 20 17 18 17 18 17 17 18 17 19 22 30 27 13 16 13 8
8 6 5 5 6 6 6 7 7 8 9 10 10 11 12 12 13 14 16 17 18 18 18 20 21 21 15 31 32 23 17 19 19 17 17 16 22 21 28 27 33 28 16
10 8 6 5 5 5 5 7 6 7 8 9 9 10 10 11 12 14 15 16 17 17 19 19 20 21 19 30 29 28 17 18 19 19 16 15 15 18 15 23 28 29 33
11 9 7 6 5 5 6 7 7 9 9 9 10 10 10 11 11 12 13 13 13 15 16 17 18 18 19 29 25 24 17 17 19 20 20 20 20 22 17 15 18 19 18
10 8 7 6 6 6 6 8 8 10 10 10 10 10 9 9 11 12 12 12 12 13 14 14 17 17 19 32 28 18 15 15 18 18 22 20 21 32 30 18 17 16 16
10 10 8 8 7 5 7 8 9 10 9 9 9 10 11 12 12 12 11 11 11 12 11 14 16 24 17 32 32 22 12 15 13 16 18 32 26 32 32 19 16 15 15
10 9 7 7 6 5 7 8 8 9 5 8 9 10 11 12 12 12 12 11 12 13 13 15 15 17 22 22 31 31 15 12 12 13 13 14 29 31 30 27 17 16 14
11 9 8 7 4 5 7 7 8 3 4 6 8 10 10 9 9 11 12 12 11 13 14 14 13 13 15 27 28 29 28 21 14 14 12 14 26 27 30 21 26 23 14
11 9 9 8 4 5 6 8 5 5 6 7 6 7 8 9 9 11 10 10 12 11 12 12 11 12 12 12 24 26 25 23 14 12 17 23 24 24 19 28 26 19 13
11 9 10 8 6 5 6 7 7 6 7 7 7 7 8 9 10 9 9 10 10 11 11 11 11 11 12 12 11 11 11 16 13 13 12 14 16 17 15 14 15 12 12
11 11 10 10 9 8 8 7 7 8 8 7 7 7 7 7 8 9 9 10 11 11 9 10 10 11 11 12 17 15 12 10 11 10 10 11 12 12 13 12 13 13 13
13 11 11 11 10 10 9 9 8 8 8 8 6 5 5 5 6 6 7 15 16 17 18 18 13 9 16 17 18 19 20 19 15 11 12 12 12 12 12 12 12 12 13
Wind_Direction
16 17 15 11 7 9 4 0 355 356 353 351 346 338 335 326 328 325 323 325 319 317 313 303 298 295 286 277 274 274 241 229 233 224 249 237 235 227 231 231 223 224 224
10 8 6 7 7 1 0 357 355 356 352 349 340 328 322 317 312 313 319 316 315 309 302 300 295 290 286 271 262 256 257 238 220 218 229 229 217 222 231 219 222 224 220
5 2 1 2 359 360 356 351 349 352 349 346 336 330 321 316 319 324 317 317 309 302 297 292 286 284 278 274 262 256 251 257 232 219 219 217 234 189 177 228 221 215 217
15 5 359 359 358 354 349 348 342 346 347 344 339 337 327 322 322 316 312 312 304 299 296 290 287 281 276 272 269 249 249 248 260 223 222 237 195 205 217 211 226 220 218
14 3 359 354 352 352 352 348 344 348 349 346 338 331 325 319 317 314 314 312 304 297 291 289 283 276 274 273 275 273 264 255 245 258 220 224 231 226 213 244 238 227 229
7 5 359 356 355 355 356 351 353 350 350 344 337 335 330 323 320 317 313 306 304 301 292 276 280 276 274 276 274 272 265 259 256 260 261 224 215 211 196 214 242 267 239
12 7 5 4 1 1 360 356 354 350 348 346 341 340 335 328 322 320 318 317 309 306 304 302 289 274 272 271 261 267 270 271 270 274 296 256 228 218 205 202 215 244 256
24 15 10 2 359 359 358 359 354 350 352 348 346 345 343 336 327 333 331 323 322 316 315 312 305 295 280 267 265 255 260 268 262 268 274 296 250 215 220 219 199 199 223
15 12 9 4 360 360 0 359 355 351 354 352 351 351 349 348 350 347 340 338 330 327 326 320 315 305 291 285 263 249 250 253 263 262 287 293 280 239 219 222 212 217 234
20 12 11 1 1 0 3 2 360 356 352 356 360 357 355 357 357 359 357 349 342 332 336 337 339 335 327 306 244 238 243 248 253 261 263 261 272 296 241 230 228 219 222
106 17 1 4 4 6 12 8 4 360 357 4 4 3 359 1 1 2 355 351 349 345 349 353 360 0 4 6 21 16 257 246 253 258 273 267 270 253 280 258 227 234 219
153 79 16 10 5 11 17 18 10 7 5 7 8 4 2 8 7 5 359 353 356 4 4 5 14 15 20 25 32 40 38 46 38 28 30 23 2 357 284 275 263 234 210
161 119 65 28 19 27 24 20 16 8 13 14 13 12 10 13 8 4 1 3 6 7 13 16 24 23 25 32 37 40 44 45 43 34 36 32 26 21 2 14 3 313 222
155 139 89 53 39 39 32 26 20 14 18 20 19 14 13 11 11 10 11 11 15 14 16 20 26 32 30 30 36 41 43 47 45 41 38 40 38 31 24 24 11 347 328
159 147 122 88 59 46 40 39 29 23 22 25 22 15 16 19 18 18 19 16 21 21 19 26 28 29 35 32 30 38 45 43 46 44 40 39 43 47 46 39 32 18 15
161 155 140 102 72 54 49 49 35 34 36 30 26 20 21 21 22 22 23 21 23 24 24 28 31 32 32 35 36 37 38 41 38 40 39 35 33 37 45 44 50 46 39
162 157 135 108 85 67 60 60 52 54 51 44 30 28 27 29 25 29 28 25 24 23 26 27 30 35 33 33 38 38 37 37 39 36 38 38 33 34 36 41 47 45 46
158 151 136 120 105 93 78 75 65 63 58 53 46 38 29 32 28 34 34 33 33 33 31 30 28 36 34 34 35 41 44 43 39 36 32 35 33 32 32 36 43 41 40
143 137 136 129 114 103 95 83 70 68 60 51 47 48 47 41 31 36 37 38 40 40 41 36 34 31 36 35 34 35 40 45 43 37 39 37 35 32 30 35 38 38 34
140 141 137 126 114 107 102 91 78 74 63 56 51 52 53 50 45 40 42 42 46 48 46 47 40 36 31 36 36 35 36 40 38 38 36 38 42 38 36 34 28 33 22
141 140 136 130 130 131 115 98 89 72 51 64 63 58 53 57 50 49 46 45 49 49 43 44 41 37 36 32 37 38 36 37 36 36 30 32 35 40 40 40 33 30 18
146 144 135 129 135 135 120 109 96 94 77 68 62 54 51 55 50 54 51 47 47 52 49 46 48 42 39 37 37 39 42 39 44 39 36 30 36 37 39 38 34 32 33
149 149 140 133 131 143 134 120 123 124 101 84 70 69 60 49 49 55 55 55 49 48 49 45 44 41 39 43 39 41 42 43 45 41 39 40 39 38 35 34 31 29 25
154 151 148 140 135 139 128 127 137 121 105 95 82 67 69 57 47 52 50 54 51 50 49 46 45 42 39 35 36 37 41 37 43 39 39 36 40 40 34 31 29 26 23
158 161 158 153 149 148 137 140 133 123 109 95 85 78 71 59 64 53 49 57 48 57 57 54 44 44 42 37 37 41 37 42 40 43 45 41 36 35 31 30 29 24 19
162 162 160 154 154 153 144 145 142 133 122 112 102 89 84 74 69 68 72 51 56 55 49 54 60 48 48 43 40 39 43 45 34 41 39 37 34 32 28 27 24 25 22